Time,TemperatureF,DewpointF,PressureIn,WindDirection,WindDirectionDegrees,WindSpeedMPH,WindSpeedGustMPH,Humidity,HourlyPrecipIn,Conditions,Clouds,dailyrainin,SoftwareType,DateUTC
2013-01-20 00:05:00,32.1,21.0,29.84,WSW,248,0.0,0.0,63,0.00,RA,,0.00,WeatherDisplay:10.37,2013-01-20 05:05:00,
2013-01-20 00:10:00,32.1,20.9,29.83,WSW,246,0.0,0.0,63,0.00,OVC,,0.00,WeatherDisplay:10.37,2013-01-20 05:10:00,
2013-01-20 00:15:00,32.5,21.3,29.83,WSW,246,0.0,0.0,63,0.00,OVC,,0.00,WeatherDisplay:10.37,2013-01-20 05:15:00,
2013-01-20 00:25:00,32.9,21.6,29.83,WSW,246,0.0,0.0,63,0.00,OVC,,0.00,WeatherDisplay:10.37,2013-01-20 05:25:00,
2013-01-20 00:30:00,32.4,21.2,29.83,WSW,244,0.0,2.0,63,0.00,OVC,,0.00,WeatherDisplay:10.37,2013-01-20 05:30:00,
2013-01-20 00:40:00,31.9,20.7,29.83,SSW,206,0.0,0.0,63,0.00,OVC,,0.00,WeatherDisplay:10.37,2013-01-20 05:40:00,
2013-01-20 00:45:00,32.6,21.4,29.83,SSW,206,0.0,0.0,63,0.00,OVC,,0.00,WeatherDisplay:10.37,2013-01-20 05:45:00,
2013-01-20 00:55:00,32.4,21.2,29.83,SSW,206,0.0,0.0,63,0.00,OVC,,0.00,WeatherDisplay:10.37,2013-01-20 05:55:00,
2013-01-20 01:00:00,32.4,21.2,29.83,SSW,206,0.0,0.0,63,0.00,OVC,,0.00,WeatherDisplay:10.37,2013-01-20 06:00:00,
2013-01-20 01:05:00,32.1,22.0,29.83,SSW,206,0.0,0.0,66,0.00,OVC,,0.00,WeatherDisplay:10.37,2013-01-20 06:05:00,
2013-01-20 01:10:00,32.4,22.3,29.83,SSW,206,0.0,0.0,66,0.00,OVC,,0.00,WeatherDisplay:10.37,2013-01-20 06:10:00,
2013-01-20 01:15:00,32.3,22.2,29.82,SSW,206,0.0,0.0,66,0.00,OVC,,0.00,WeatherDisplay:10.37,2013-01-20 06:15:00,
2013-01-20 01:20:00,32.3,22.2,29.82,SSW,206,0.0,0.0,66,0.00,OVC,,0.00,WeatherDisplay:10.37,2013-01-20 06:20:00,
2013-01-20 01:25:00,32.2,22.1,29.81,SSW,206,0.0,0.0,66,0.00,OVC,,0.00,WeatherDisplay:10.37,2013-01-20 06:25:00,
2013-01-20 01:30:00,32.2,22.2,29.79,SSW,206,0.0,0.0,66,0.00,OVC,,0.00,WeatherDisplay:10.37,2013-01-20 06:30:00,
2013-01-20 01:35:00,32.5,22.4,29.79,SSW,206,0.0,0.0,66,0.00,OVC,,0.00,WeatherDisplay:10.37,2013-01-20 06:35:00,
2013-01-20 01:40:00,32.4,22.3,29.79,SSW,206,0.0,0.0,66,0.00,OVC,,0.00,WeatherDisplay:10.37,2013-01-20 06:40:00,
2013-01-20 01:45:00,31.9,21.9,29.79,SSW,206,0.0,0.0,66,0.00,OVC,,0.00,WeatherDisplay:10.37,2013-01-20 06:45:00,
2013-01-20 01:50:00,32.0,21.9,29.79,SSW,206,0.0,0.0,66,0.00,OVC,,0.00,WeatherDisplay:10.37,2013-01-20 06:50:00,
2013-01-20 01:55:00,32.0,21.9,29.80,SSW,206,0.0,0.0,66,0.00,OVC,,0.00,WeatherDisplay:10.37,2013-01-20 06:55:00,
2013-01-20 02:00:00,32.0,22.0,29.81,SSW,206,0.0,0.0,66,0.00,OVC,,0.00,WeatherDisplay:10.37,2013-01-20 07:00:00,
2013-01-20 02:05:00,32.1,22.1,29.80,SSW,206,0.0,0.0,66,0.00,OVC,,0.00,WeatherDisplay:10.37,2013-01-20 07:05:00,
2013-01-20 02:10:00,32.3,22.2,29.79,SSW,206,0.0,0.0,66,0.00,OVC,,0.00,WeatherDisplay:10.37,2013-01-20 07:10:00,
2013-01-20 02:15:00,32.0,21.9,29.80,SSW,206,0.0,0.0,66,0.00,OVC,,0.00,WeatherDisplay:10.37,2013-01-20 07:15:00,
2013-01-20 02:20:00,32.8,22.7,29.79,SSW,206,0.0,0.0,66,0.00,OVC,,0.00,WeatherDisplay:10.37,2013-01-20 07:20:00,
2013-01-20 02:25:00,32.9,22.8,29.78,SSW,206,0.0,0.0,66,0.00,OVC,,0.00,WeatherDisplay:10.37,2013-01-20 07:25:00,
2013-01-20 02:35:00,32.4,22.3,29.78,SSW,206,0.0,0.0,66,0.00,OVC,,0.00,WeatherDisplay:10.37,2013-01-20 07:35:00,
2013-01-20 02:40:00,32.2,22.2,29.77,SSW,206,0.0,0.0,66,0.00,OVC,,0.00,WeatherDisplay:10.37,2013-01-20 07:40:00,
2013-01-20 02:45:00,31.4,21.4,29.77,SSW,206,0.0,0.0,66,0.00,OVC,,0.00,WeatherDisplay:10.37,2013-01-20 07:45:00,
2013-01-20 02:50:00,31.4,21.3,29.77,SSW,206,0.0,0.0,66,0.00,OVC,,0.00,WeatherDisplay:10.37,2013-01-20 07:50:00,
2013-01-20 03:00:00,30.9,20.9,29.75,SSW,206,0.0,0.0,66,0.00,OVC,,0.00,WeatherDisplay:10.37,2013-01-20 08:00:00,
2013-01-20 03:05:00,31.2,22.9,29.75,SSW,206,0.0,0.0,71,0.00,BKN,,0.00,WeatherDisplay:10.37,2013-01-20 08:05:00,
2013-01-20 03:10:00,31.4,23.1,29.75,SSW,206,0.0,0.0,71,0.00,BKN,,0.00,WeatherDisplay:10.37,2013-01-20 08:10:00,
2013-01-20 03:15:00,31.0,22.7,29.75,SSW,206,0.0,0.0,71,0.00,BKN,,0.00,WeatherDisplay:10.37,2013-01-20 08:15:00,
2013-01-20 03:20:00,31.4,23.1,29.75,SSW,206,0.0,0.0,71,0.00,BKN,,0.00,WeatherDisplay:10.37,2013-01-20 08:20:00,
2013-01-20 03:25:00,30.5,22.2,29.75,SSW,206,0.0,0.0,71,0.00,BKN,,0.00,WeatherDisplay:10.37,2013-01-20 08:25:00,
2013-01-20 03:30:00,30.5,22.2,29.75,SSW,206,0.0,0.0,71,0.00,BKN,,0.00,WeatherDisplay:10.37,2013-01-20 08:30:00,
2013-01-20 03:35:00,30.3,22.0,29.74,SSW,206,0.0,0.0,71,0.00,BKN,,0.00,WeatherDisplay:10.37,2013-01-20 08:35:00,
2013-01-20 03:40:00,30.4,22.1,29.74,SSW,206,0.0,0.0,71,0.00,BKN,,0.00,WeatherDisplay:10.37,2013-01-20 08:40:00,
2013-01-20 03:45:00,30.6,22.3,29.74,SSW,206,0.0,0.0,71,0.00,BKN,,0.00,WeatherDisplay:10.37,2013-01-20 08:45:00,
2013-01-20 03:50:00,30.3,22.1,29.73,SSW,206,0.0,0.0,71,0.00,BKN,,0.00,WeatherDisplay:10.37,2013-01-20 08:50:00,
2013-01-20 03:55:00,29.8,21.5,29.73,SSW,206,0.0,0.0,71,0.00,BKN,,0.00,WeatherDisplay:10.37,2013-01-20 08:55:00,
2013-01-20 04:00:00,30.2,21.9,29.73,SSW,206,0.0,0.0,71,0.00,BKN,,0.00,WeatherDisplay:10.37,2013-01-20 09:00:00,
2013-01-20 04:05:00,29.5,22.6,29.72,SSW,206,0.0,0.0,75,0.00,BKN,,0.00,WeatherDisplay:10.37,2013-01-20 09:05:00,
2013-01-20 04:10:00,29.2,22.2,29.72,SSW,206,0.0,0.0,75,0.00,BKN,,0.00,WeatherDisplay:10.37,2013-01-20 09:10:00,
2013-01-20 04:15:00,29.4,22.5,29.72,SSW,206,0.0,0.0,75,0.00,BKN,,0.00,WeatherDisplay:10.37,2013-01-20 09:15:00,
2013-01-20 04:20:00,29.2,22.3,29.71,SSW,206,0.0,0.0,75,0.00,BKN,,0.00,WeatherDisplay:10.37,2013-01-20 09:20:00,
2013-01-20 04:25:00,29.4,22.5,29.71,SSW,206,0.0,0.0,75,0.00,BKN,,0.00,WeatherDisplay:10.37,2013-01-20 09:25:00,
2013-01-20 04:30:00,29.3,22.3,29.71,SSW,206,0.0,0.0,75,0.00,BKN,,0.00,WeatherDisplay:10.37,2013-01-20 09:30:00,
2013-01-20 04:35:00,29.0,22.0,29.70,SSW,206,0.0,0.0,75,0.00,BKN,,0.00,WeatherDisplay:10.37,2013-01-20 09:35:00,
2013-01-20 04:40:00,28.8,21.9,29.70,SSW,206,0.0,0.0,75,0.00,BKN,,0.00,WeatherDisplay:10.37,2013-01-20 09:40:00,
2013-01-20 04:45:00,28.9,22.0,29.69,SSW,206,0.0,0.0,75,0.00,BKN,,0.00,WeatherDisplay:10.37,2013-01-20 09:45:00,
2013-01-20 04:50:00,28.7,21.8,29.69,SSW,206,0.0,0.0,75,0.00,BKN,,0.00,WeatherDisplay:10.37,2013-01-20 09:50:00,
2013-01-20 04:55:00,29.0,22.1,29.69,SSW,206,0.0,0.0,75,0.00,BKN,,0.00,WeatherDisplay:10.37,2013-01-20 09:55:00,
2013-01-20 05:00:00,28.8,21.9,29.68,SSW,206,0.0,0.0,75,0.00,BKN,,0.00,WeatherDisplay:10.37,2013-01-20 10:00:00,
2013-01-20 05:05:00,29.0,22.1,29.68,SSW,206,0.0,0.0,75,0.00,CLR,,0.00,WeatherDisplay:10.37,2013-01-20 10:05:00,
2013-01-20 05:10:00,29.1,22.1,29.68,SSW,206,0.0,0.0,75,0.00,CLR,,0.00,WeatherDisplay:10.37,2013-01-20 10:10:00,
2013-01-20 05:15:00,28.9,22.0,29.67,SSW,206,0.0,0.0,75,0.00,CLR,,0.00,WeatherDisplay:10.37,2013-01-20 10:15:00,
2013-01-20 05:20:00,29.0,22.1,29.67,SSW,206,0.0,0.0,75,0.00,CLR,,0.00,WeatherDisplay:10.37,2013-01-20 10:20:00,
2013-01-20 05:25:00,29.5,22.5,29.66,SSW,206,0.0,0.0,75,0.00,CLR,,0.00,WeatherDisplay:10.37,2013-01-20 10:25:00,
2013-01-20 05:30:00,29.2,22.2,29.66,SSW,206,0.0,0.0,75,0.00,CLR,,0.00,WeatherDisplay:10.37,2013-01-20 10:30:00,
2013-01-20 05:35:00,29.2,22.3,29.66,SSW,206,0.0,0.0,75,0.00,CLR,,0.00,WeatherDisplay:10.37,2013-01-20 10:35:00,
2013-01-20 05:40:00,29.3,22.3,29.65,SSW,206,0.0,0.0,75,0.00,CLR,,0.00,WeatherDisplay:10.37,2013-01-20 10:40:00,
2013-01-20 05:45:00,29.4,22.5,29.65,SSW,206,0.0,0.0,75,0.00,CLR,,0.00,WeatherDisplay:10.37,2013-01-20 10:45:00,
2013-01-20 05:50:00,29.1,22.2,29.64,SSW,206,0.0,0.0,75,0.00,CLR,,0.00,WeatherDisplay:10.37,2013-01-20 10:50:00,
2013-01-20 05:55:00,28.9,22.0,29.64,SSW,206,0.0,0.0,75,0.00,CLR,,0.00,WeatherDisplay:10.37,2013-01-20 10:55:00,
2013-01-20 06:00:00,29.3,22.3,29.64,SSW,206,0.0,0.0,75,0.00,CLR,,0.00,WeatherDisplay:10.37,2013-01-20 11:00:00,
2013-01-20 06:05:00,29.3,22.4,29.64,SSW,206,0.0,0.0,75,0.00,CLR,,0.00,WeatherDisplay:10.37,2013-01-20 11:05:00,
2013-01-20 06:10:00,28.9,22.0,29.63,SSW,206,0.0,0.0,75,0.00,CLR,,0.00,WeatherDisplay:10.37,2013-01-20 11:10:00,
2013-01-20 06:15:00,29.3,22.3,29.63,SSW,206,0.0,0.0,75,0.00,CLR,,0.00,WeatherDisplay:10.37,2013-01-20 11:15:00,
2013-01-20 06:20:00,29.3,22.3,29.63,SSW,206,0.0,0.0,75,0.00,CLR,,0.00,WeatherDisplay:10.37,2013-01-20 11:20:00,
2013-01-20 06:25:00,29.2,22.3,29.63,SSW,206,0.0,0.0,75,0.00,CLR,,0.00,WeatherDisplay:10.37,2013-01-20 11:25:00,
2013-01-20 06:30:00,28.7,21.8,29.63,SSW,206,0.0,0.0,75,0.00,CLR,,0.00,WeatherDisplay:10.37,2013-01-20 11:30:00,
2013-01-20 06:35:00,29.3,22.4,29.63,SSW,206,0.0,0.0,75,0.00,CLR,,0.00,WeatherDisplay:10.37,2013-01-20 11:35:00,
2013-01-20 06:40:00,29.3,22.3,29.62,SSW,206,0.0,0.0,75,0.00,CLR,,0.00,WeatherDisplay:10.37,2013-01-20 11:40:00,
2013-01-20 06:45:00,29.5,22.6,29.62,SSW,206,0.0,0.0,75,0.00,CLR,,0.00,WeatherDisplay:10.37,2013-01-20 11:45:00,
2013-01-20 06:50:00,30.0,23.0,29.61,SSW,206,0.0,6.0,75,0.00,CLR,,0.00,WeatherDisplay:10.37,2013-01-20 11:50:00,
2013-01-20 07:00:00,29.9,23.0,29.61,SSW,196,0.0,0.0,75,0.00,CLR,,0.00,WeatherDisplay:10.37,2013-01-20 12:00:00,
2013-01-20 07:10:00,30.0,23.7,29.60,SSW,196,0.0,0.0,77,0.00,CLR,,0.00,WeatherDisplay:10.37,2013-01-20 12:10:00,
2013-01-20 07:15:00,29.9,23.5,29.60,SSW,196,0.0,0.0,77,0.00,CLR,,0.00,WeatherDisplay:10.37,2013-01-20 12:15:00,
2013-01-20 07:20:00,30.1,23.7,29.60,SSW,196,0.0,0.0,77,0.00,CLR,,0.00,WeatherDisplay:10.37,2013-01-20 12:20:00,
2013-01-20 07:25:00,30.1,23.8,29.60,SSW,196,0.0,0.0,77,0.00,CLR,,0.00,WeatherDisplay:10.37,2013-01-20 12:25:00,
2013-01-20 07:35:00,29.9,23.6,29.60,SSW,196,0.0,0.0,77,0.00,CLR,,0.00,WeatherDisplay:10.37,2013-01-20 12:35:00,
2013-01-20 07:40:00,30.1,23.7,29.59,SSW,196,0.0,0.0,77,0.00,CLR,,0.00,WeatherDisplay:10.37,2013-01-20 12:40:00,
2013-01-20 07:45:00,30.4,24.0,29.59,SSW,196,0.0,0.0,77,0.00,CLR,,0.00,WeatherDisplay:10.37,2013-01-20 12:45:00,
2013-01-20 07:50:00,31.0,24.6,29.59,SSW,196,0.0,0.0,77,0.00,CLR,,0.00,WeatherDisplay:10.37,2013-01-20 12:50:00,
2013-01-20 08:00:00,31.3,24.9,29.59,SSW,210,0.0,5.0,77,0.00,CLR,,0.00,WeatherDisplay:10.37,2013-01-20 13:00:00,
2013-01-20 08:05:00,31.4,25.3,29.59,SW,222,0.0,0.0,78,0.00,CLR,,0.00,WeatherDisplay:10.37,2013-01-20 13:05:00,
2013-01-20 08:10:00,31.2,25.2,29.59,SW,222,0.0,0.0,78,0.00,CLR,,0.00,WeatherDisplay:10.37,2013-01-20 13:10:00,
2013-01-20 08:15:00,31.9,25.8,29.60,SW,222,0.0,0.0,78,0.00,CLR,,0.00,WeatherDisplay:10.37,2013-01-20 13:15:00,
2013-01-20 08:20:00,33.2,27.0,29.59,SW,222,0.0,0.0,78,0.00,CLR,,0.00,WeatherDisplay:10.37,2013-01-20 13:20:00,
2013-01-20 08:25:00,33.8,27.7,29.59,SSW,201,5.0,13.0,78,0.00,CLR,,0.00,WeatherDisplay:10.37,2013-01-20 13:25:00,
2013-01-20 08:30:00,35.7,29.5,29.59,SW,217,2.0,11.0,78,0.00,CLR,,0.00,WeatherDisplay:10.37,2013-01-20 13:30:00,
2013-01-20 08:35:00,37.3,31.0,29.59,SW,233,8.0,21.0,78,0.00,CLR,,0.00,WeatherDisplay:10.37,2013-01-20 13:35:00,
2013-01-20 08:40:00,37.9,31.7,29.59,WSW,256,2.0,17.0,78,0.00,CLR,,0.00,WeatherDisplay:10.37,2013-01-20 13:40:00,
2013-01-20 08:45:00,37.3,31.1,29.59,West,280,3.0,8.0,78,0.00,CLR,,0.00,WeatherDisplay:10.37,2013-01-20 13:45:00,
2013-01-20 08:55:00,38.6,32.4,29.58,SW,235,2.0,14.0,78,0.00,CLR,,0.00,WeatherDisplay:10.37,2013-01-20 13:55:00,
2013-01-20 09:05:00,39.4,28.2,29.57,WSW,256,1.0,12.0,64,0.00,CLR,,0.00,WeatherDisplay:10.37,2013-01-20 14:05:00,
2013-01-20 09:10:00,40.0,28.8,29.57,WSW,251,6.0,13.0,64,0.00,CLR,,0.00,WeatherDisplay:10.37,2013-01-20 14:10:00,
2013-01-20 09:15:00,39.7,28.5,29.56,WSW,255,1.0,9.0,64,0.00,CLR,,0.00,WeatherDisplay:10.37,2013-01-20 14:15:00,
2013-01-20 09:20:00,40.2,29.0,29.55,West,263,5.0,9.0,64,0.00,CLR,,0.00,WeatherDisplay:10.37,2013-01-20 14:20:00,
2013-01-20 09:25:00,40.7,29.4,29.55,SW,219,2.0,9.0,64,0.00,CLR,,0.00,WeatherDisplay:10.37,2013-01-20 14:25:00,
2013-01-20 09:30:00,41.6,30.3,29.55,WSW,247,1.0,8.0,64,0.00,CLR,,0.00,WeatherDisplay:10.37,2013-01-20 14:30:00,
2013-01-20 09:35:00,41.6,30.3,29.55,West,271,1.0,10.0,64,0.00,CLR,,0.00,WeatherDisplay:10.37,2013-01-20 14:35:00,
2013-01-20 09:40:00,41.7,30.4,29.55,WSW,250,0.0,5.0,64,0.00,CLR,,0.00,WeatherDisplay:10.37,2013-01-20 14:40:00,
2013-01-20 09:45:00,42.0,30.7,29.55,SW,217,0.0,7.0,64,0.01,RA,,0.01,WeatherDisplay:10.37,2013-01-20 14:45:00,
2013-01-20 09:50:00,42.3,30.9,29.55,WSW,245,2.0,10.0,64,0.00,RA,,0.01,WeatherDisplay:10.37,2013-01-20 14:50:00,
2013-01-20 09:55:00,42.2,30.9,29.54,WSW,248,3.0,11.0,64,0.00,CLR,,0.01,WeatherDisplay:10.37,2013-01-20 14:55:00,
2013-01-20 10:00:00,41.7,30.4,29.54,WSW,255,0.0,10.0,64,0.00,CLR,,0.01,WeatherDisplay:10.37,2013-01-20 15:00:00,
2013-01-20 10:05:00,42.5,24.2,29.54,WSW,246,2.0,10.0,48,0.00,CLR,,0.01,WeatherDisplay:10.37,2013-01-20 15:05:00,
2013-01-20 10:10:00,43.1,24.7,29.54,SW,228,1.0,8.0,48,0.01,RA,,0.02,WeatherDisplay:10.37,2013-01-20 15:10:00,
2013-01-20 10:15:00,43.5,25.1,29.54,SW,214,1.0,16.0,48,0.00,RA,,0.02,WeatherDisplay:10.37,2013-01-20 15:15:00,
2013-01-20 10:20:00,43.9,25.5,29.54,WSW,241,6.0,20.0,48,0.00,CLR,,0.02,WeatherDisplay:10.37,2013-01-20 15:20:00,
2013-01-20 10:25:00,44.1,25.7,29.54,West,261,8.0,16.0,48,0.00,CLR,,0.02,WeatherDisplay:10.37,2013-01-20 15:25:00,
2013-01-20 10:30:00,44.6,26.1,29.54,WSW,237,6.0,15.0,48,0.01,RA,,0.03,WeatherDisplay:10.37,2013-01-20 15:30:00,
2013-01-20 10:35:00,44.5,26.0,29.53,SW,218,0.0,22.0,48,0.00,RA,,0.03,WeatherDisplay:10.37,2013-01-20 15:35:00,
2013-01-20 10:40:00,44.7,26.2,29.53,WSW,238,10.0,22.0,48,0.00,CLR,,0.03,WeatherDisplay:10.37,2013-01-20 15:40:00,
2013-01-20 10:45:00,44.7,26.2,29.53,WNW,283,2.0,9.0,48,0.00,CLR,,0.03,WeatherDisplay:10.37,2013-01-20 15:45:00,
2013-01-20 10:50:00,45.1,26.5,29.53,WNW,292,6.0,15.0,48,0.00,CLR,,0.03,WeatherDisplay:10.37,2013-01-20 15:50:00,
2013-01-20 10:55:00,45.7,27.1,29.53,WNW,287,8.0,15.0,48,0.00,CLR,,0.03,WeatherDisplay:10.37,2013-01-20 15:55:00,
2013-01-20 11:00:00,45.7,27.1,29.53,WNW,284,2.0,14.0,48,0.01,RA,,0.04,WeatherDisplay:10.37,2013-01-20 16:00:00,
2013-01-20 11:05:00,46.2,24.9,29.53,WNW,295,7.0,14.0,43,0.00,RA,,0.04,WeatherDisplay:10.37,2013-01-20 16:05:00,
2013-01-20 11:10:00,46.0,24.7,29.53,SW,228,3.0,16.0,43,0.00,CLR,,0.04,WeatherDisplay:10.37,2013-01-20 16:10:00,
2013-01-20 11:15:00,46.4,25.1,29.54,West,269,2.0,15.0,43,0.00,CLR,,0.04,WeatherDisplay:10.37,2013-01-20 16:15:00,
2013-01-20 11:20:00,45.8,24.5,29.54,NNW,328,2.0,12.0,43,0.00,CLR,,0.04,WeatherDisplay:10.37,2013-01-20 16:20:00,
2013-01-20 11:25:00,45.1,23.9,29.53,North,356,6.0,15.0,43,0.00,CLR,,0.04,WeatherDisplay:10.37,2013-01-20 16:25:00,
2013-01-20 11:30:00,45.0,23.8,29.54,NW,326,2.0,10.0,43,0.00,CLR,,0.04,WeatherDisplay:10.37,2013-01-20 16:30:00,
2013-01-20 11:35:00,43.8,22.7,29.54,WSW,257,3.0,11.0,43,0.00,CLR,,0.04,WeatherDisplay:10.37,2013-01-20 16:35:00,
2013-01-20 11:40:00,43.5,22.5,29.54,WNW,283,2.0,14.0,43,0.00,CLR,,0.04,WeatherDisplay:10.37,2013-01-20 16:40:00,
2013-01-20 11:45:00,43.9,22.8,29.54,West,260,6.0,15.0,43,0.00,CLR,,0.04,WeatherDisplay:10.37,2013-01-20 16:45:00,
2013-01-20 11:50:00,43.5,22.4,29.54,West,275,8.0,20.0,43,0.00,CLR,,0.04,WeatherDisplay:10.37,2013-01-20 16:50:00,
2013-01-20 11:55:00,43.6,22.6,29.55,NW,309,5.0,14.0,43,0.00,CLR,,0.04,WeatherDisplay:10.37,2013-01-20 16:55:00,
2013-01-20 12:00:00,43.7,22.7,29.55,WNW,298,1.0,13.0,43,0.00,CLR,,0.04,WeatherDisplay:10.37,2013-01-20 17:00:00,
2013-01-20 12:05:00,43.8,24.8,29.55,WNW,291,3.0,12.0,47,0.00,OVC,,0.04,WeatherDisplay:10.37,2013-01-20 17:05:00,
2013-01-20 12:10:00,43.3,24.4,29.56,NNW,343,5.0,15.0,47,0.00,OVC,,0.04,WeatherDisplay:10.37,2013-01-20 17:10:00,
2013-01-20 12:15:00,42.6,23.8,29.56,North,355,2.0,13.0,47,0.00,OVC,,0.04,WeatherDisplay:10.37,2013-01-20 17:15:00,
2013-01-20 12:20:00,41.7,23.0,29.56,NNW,330,9.0,21.0,47,0.00,OVC,,0.04,WeatherDisplay:10.37,2013-01-20 17:20:00,
2013-01-20 12:25:00,41.3,22.6,29.56,West,279,2.0,15.0,47,0.00,OVC,,0.04,WeatherDisplay:10.37,2013-01-20 17:25:00,
2013-01-20 12:30:00,40.9,22.2,29.56,WSW,237,3.0,11.0,47,0.00,OVC,,0.04,WeatherDisplay:10.37,2013-01-20 17:30:00,
2013-01-20 12:35:00,40.7,22.0,29.56,NW,325,6.0,16.0,47,0.00,OVC,,0.04,WeatherDisplay:10.37,2013-01-20 17:35:00,
2013-01-20 12:40:00,40.6,21.9,29.55,NW,306,8.0,17.0,47,0.00,OVC,,0.04,WeatherDisplay:10.37,2013-01-20 17:40:00,
2013-01-20 12:45:00,40.2,21.6,29.55,SSE,154,3.0,13.0,47,0.00,OVC,,0.04,WeatherDisplay:10.37,2013-01-20 17:45:00,
2013-01-20 12:50:00,40.1,21.5,29.55,NNW,329,8.0,22.0,47,0.00,OVC,,0.04,WeatherDisplay:10.37,2013-01-20 17:50:00,
2013-01-20 12:55:00,40.2,21.6,29.55,WNW,297,7.0,17.0,47,0.00,OVC,,0.04,WeatherDisplay:10.37,2013-01-20 17:55:00,
2013-01-20 13:00:00,40.2,21.6,29.55,NW,307,5.0,15.0,47,0.00,OVC,,0.04,WeatherDisplay:10.37,2013-01-20 18:00:00,
2013-01-20 13:05:00,40.3,24.9,29.56,NW,307,3.0,16.0,54,0.00,OVC,,0.04,WeatherDisplay:10.37,2013-01-20 18:05:00,
2013-01-20 13:10:00,40.4,25.1,29.56,NW,309,3.0,15.0,54,0.00,OVC,,0.04,WeatherDisplay:10.37,2013-01-20 18:10:00,
2013-01-20 13:15:00,40.5,25.2,29.56,WNW,292,2.0,13.0,54,0.00,OVC,,0.04,WeatherDisplay:10.37,2013-01-20 18:15:00,
2013-01-20 13:20:00,40.4,25.1,29.56,West,270,5.0,12.0,54,0.00,OVC,,0.04,WeatherDisplay:10.37,2013-01-20 18:20:00,
2013-01-20 13:25:00,40.8,25.4,29.56,SSW,205,2.0,13.0,54,0.00,OVC,,0.04,WeatherDisplay:10.37,2013-01-20 18:25:00,
2013-01-20 13:30:00,40.9,25.5,29.56,West,262,2.0,12.0,54,0.00,OVC,,0.04,WeatherDisplay:10.37,2013-01-20 18:30:00,
2013-01-20 13:35:00,40.7,25.3,29.57,West,269,3.0,15.0,54,0.00,OVC,,0.04,WeatherDisplay:10.37,2013-01-20 18:35:00,
2013-01-20 13:40:00,40.8,25.4,29.57,WSW,238,5.0,14.0,54,0.00,OVC,,0.04,WeatherDisplay:10.37,2013-01-20 18:40:00,
2013-01-20 13:45:00,41.1,25.7,29.57,SSW,198,2.0,12.0,54,0.00,OVC,,0.04,WeatherDisplay:10.37,2013-01-20 18:45:00,
2013-01-20 13:50:00,41.6,26.2,29.58,West,259,2.0,12.0,54,0.00,OVC,,0.04,WeatherDisplay:10.37,2013-01-20 18:50:00,
2013-01-20 13:55:00,41.7,26.3,29.58,West,262,0.0,10.0,54,0.00,OVC,,0.04,WeatherDisplay:10.37,2013-01-20 18:55:00,
2013-01-20 14:00:00,41.7,26.2,29.58,WSW,242,2.0,11.0,54,0.00,OVC,,0.04,WeatherDisplay:10.37,2013-01-20 19:00:00,
2013-01-20 14:05:00,42.1,21.7,29.58,NNW,330,3.0,18.0,44,0.00,CLR,,0.04,WeatherDisplay:10.37,2013-01-20 19:05:00,
2013-01-20 14:15:00,41.8,21.4,29.59,NW,320,2.0,13.0,44,0.00,CLR,,0.04,WeatherDisplay:10.37,2013-01-20 19:15:00,
2013-01-20 14:20:00,41.3,21.0,29.59,WNW,283,1.0,16.0,44,0.00,CLR,,0.04,WeatherDisplay:10.37,2013-01-20 19:20:00,
2013-01-20 14:25:00,41.3,21.0,29.60,SW,226,3.0,14.0,44,0.00,CLR,,0.04,WeatherDisplay:10.37,2013-01-20 19:25:00,
2013-01-20 14:30:00,40.6,20.3,29.60,NNW,340,3.0,20.0,44,0.00,CLR,,0.04,WeatherDisplay:10.37,2013-01-20 19:30:00,
2013-01-20 14:40:00,40.3,20.1,29.61,NW,304,6.0,22.0,44,0.00,CLR,,0.04,WeatherDisplay:10.37,2013-01-20 19:40:00,
2013-01-20 14:45:00,40.0,19.8,29.61,WNW,285,7.0,20.0,44,0.00,CLR,,0.04,WeatherDisplay:10.37,2013-01-20 19:45:00,
2013-01-20 14:50:00,39.9,19.7,29.62,SW,234,0.0,10.0,44,0.00,CLR,,0.04,WeatherDisplay:10.37,2013-01-20 19:50:00,
2013-01-20 14:55:00,39.4,19.3,29.63,WSW,244,6.0,17.0,44,0.00,CLR,,0.04,WeatherDisplay:10.37,2013-01-20 19:55:00,
2013-01-20 15:05:00,39.0,7.8,29.64,NNE,26,1.0,14.0,27,0.00,CLR,,0.04,WeatherDisplay:10.37,2013-01-20 20:05:00,
2013-01-20 15:10:00,38.4,7.3,29.64,North,7,5.0,17.0,27,0.00,CLR,,0.04,WeatherDisplay:10.37,2013-01-20 20:10:00,
2013-01-20 15:15:00,38.1,7.0,29.64,NNW,341,3.0,20.0,27,0.00,CLR,,0.04,WeatherDisplay:10.37,2013-01-20 20:15:00,
2013-01-20 15:20:00,37.8,6.7,29.65,NW,313,7.0,14.0,27,0.00,CLR,,0.04,WeatherDisplay:10.37,2013-01-20 20:20:00,
2013-01-20 15:25:00,37.4,6.4,29.65,NW,309,2.0,14.0,27,0.00,CLR,,0.04,WeatherDisplay:10.37,2013-01-20 20:25:00,
2013-01-20 15:30:00,37.2,6.2,29.65,WNW,292,6.0,16.0,27,0.00,CLR,,0.04,WeatherDisplay:10.37,2013-01-20 20:30:00,
2013-01-20 15:35:00,37.0,6.0,29.66,SSW,205,2.0,10.0,27,0.00,CLR,,0.04,WeatherDisplay:10.37,2013-01-20 20:35:00,
2013-01-20 15:40:00,36.7,5.8,29.66,SSW,195,0.0,15.0,27,0.00,CLR,,0.04,WeatherDisplay:10.37,2013-01-20 20:40:00,
2013-01-20 15:45:00,36.4,5.5,29.67,North,1,7.0,14.0,27,0.00,CLR,,0.04,WeatherDisplay:10.37,2013-01-20 20:45:00,
2013-01-20 15:50:00,35.8,5.0,29.68,WNW,295,8.0,23.0,27,0.00,CLR,,0.04,WeatherDisplay:10.37,2013-01-20 20:50:00,
2013-01-20 16:00:00,35.4,4.7,29.69,NW,319,6.0,17.0,27,0.00,CLR,,0.04,WeatherDisplay:10.37,2013-01-20 21:00:00,
2013-01-20 16:05:00,35.2,8.9,29.69,WNW,296,5.0,15.0,33,0.00,CLR,,0.04,WeatherDisplay:10.37,2013-01-20 21:05:00,
2013-01-20 16:10:00,34.6,8.4,29.70,WNW,298,6.0,16.0,33,0.00,CLR,,0.04,WeatherDisplay:10.37,2013-01-20 21:10:00,
2013-01-20 16:15:00,34.3,8.2,29.71,WNW,303,1.0,9.0,33,0.00,CLR,,0.04,WeatherDisplay:10.37,2013-01-20 21:15:00,
2013-01-20 16:20:00,33.8,7.7,29.72,NNW,336,5.0,16.0,33,0.00,CLR,,0.04,WeatherDisplay:10.37,2013-01-20 21:20:00,
2013-01-20 16:30:00,33.1,7.1,29.73,NW,324,3.0,13.0,33,0.00,CLR,,0.04,WeatherDisplay:10.37,2013-01-20 21:30:00,
2013-01-20 16:35:00,32.9,6.9,29.73,WNW,301,1.0,13.0,33,0.00,CLR,,0.04,WeatherDisplay:10.37,2013-01-20 21:35:00,
2013-01-20 16:40:00,32.4,6.4,29.73,WSW,241,3.0,14.0,33,0.00,CLR,,0.04,WeatherDisplay:10.37,2013-01-20 21:40:00,
2013-01-20 16:45:00,32.1,6.2,29.74,SSW,198,3.0,15.0,33,0.00,CLR,,0.04,WeatherDisplay:10.37,2013-01-20 21:45:00,
2013-01-20 16:50:00,32.1,6.2,29.74,NNW,329,3.0,14.0,33,0.00,CLR,,0.04,WeatherDisplay:10.37,2013-01-20 21:50:00,
2013-01-20 16:55:00,31.8,6.0,29.74,NNE,15,6.0,14.0,33,0.00,CLR,,0.04,WeatherDisplay:10.37,2013-01-20 21:55:00,
2013-01-20 17:00:00,31.7,5.8,29.74,NW,305,7.0,21.0,33,0.00,CLR,,0.04,WeatherDisplay:10.37,2013-01-20 22:00:00,
2013-01-20 17:05:00,31.5,10.5,29.75,West,278,6.0,16.0,41,0.00,CLR,,0.04,WeatherDisplay:10.37,2013-01-20 22:05:00,
2013-01-20 17:10:00,31.5,10.4,29.75,West,281,2.0,13.0,41,0.00,CLR,,0.04,WeatherDisplay:10.37,2013-01-20 22:10:00,
2013-01-20 17:20:00,31.2,10.2,29.76,NW,315,3.0,13.0,41,0.00,CLR,,0.04,WeatherDisplay:10.37,2013-01-20 22:20:00,
2013-01-20 17:25:00,30.9,9.9,29.76,West,268,6.0,12.0,41,0.00,CLR,,0.04,WeatherDisplay:10.37,2013-01-20 22:25:00,
2013-01-20 17:30:00,30.8,9.8,29.77,NNW,332,5.0,14.0,41,0.00,CLR,,0.04,WeatherDisplay:10.37,2013-01-20 22:30:00,
2013-01-20 17:35:00,30.5,9.6,29.77,NNW,342,2.0,15.0,41,0.00,CLR,,0.04,WeatherDisplay:10.37,2013-01-20 22:35:00,
2013-01-20 17:45:00,30.2,9.3,29.77,NW,309,3.0,13.0,41,0.00,CLR,,0.04,WeatherDisplay:10.37,2013-01-20 22:45:00,
2013-01-20 17:50:00,30.0,9.1,29.78,WNW,282,0.0,8.0,41,0.00,CLR,,0.04,WeatherDisplay:10.37,2013-01-20 22:50:00,
2013-01-20 17:55:00,29.9,9.0,29.78,NW,304,0.0,8.0,41,0.00,CLR,,0.04,WeatherDisplay:10.37,2013-01-20 22:55:00,
2013-01-20 18:00:00,29.6,8.7,29.78,NW,319,2.0,14.0,41,0.00,CLR,,0.04,WeatherDisplay:10.37,2013-01-20 23:00:00,
2013-01-20 18:05:00,29.4,9.1,29.78,NW,321,2.0,15.0,42,0.00,FEW,,0.04,WeatherDisplay:10.37,2013-01-20 23:05:00,
2013-01-20 18:10:00,29.4,9.1,29.78,North,358,0.0,2.0,42,0.00,FEW,,0.04,WeatherDisplay:10.37,2013-01-20 23:10:00,
2013-01-20 18:15:00,29.4,9.1,29.78,North,5,2.0,15.0,42,0.00,FEW,,0.04,WeatherDisplay:10.37,2013-01-20 23:15:00,
2013-01-20 18:20:00,29.0,8.7,29.79,SSW,199,1.0,16.0,42,0.00,FEW,,0.04,WeatherDisplay:10.37,2013-01-20 23:20:00,
2013-01-20 18:25:00,28.8,8.5,29.79,NNW,340,5.0,10.0,42,0.00,FEW,,0.04,WeatherDisplay:10.37,2013-01-20 23:25:00,
2013-01-20 18:35:00,28.4,8.2,29.79,NW,317,1.0,7.0,42,0.00,FEW,,0.04,WeatherDisplay:10.37,2013-01-20 23:35:00,
2013-01-20 18:40:00,28.7,8.4,29.79,WNW,292,1.0,13.0,42,0.00,FEW,,0.04,WeatherDisplay:10.37,2013-01-20 23:40:00,
2013-01-20 18:45:00,28.5,8.2,29.79,West,273,0.0,8.0,42,0.00,FEW,,0.04,WeatherDisplay:10.37,2013-01-20 23:45:00,
2013-01-20 18:50:00,28.2,8.0,29.79,West,275,0.0,10.0,42,0.00,FEW,,0.04,WeatherDisplay:10.37,2013-01-20 23:50:00,
2013-01-20 19:00:00,28.1,8.0,29.79,WNW,297,0.0,5.0,42,0.00,FEW,,0.04,WeatherDisplay:10.37,2013-01-21 00:00:00,
2013-01-20 19:05:00,27.7,5.9,29.80,WSW,248,0.0,14.0,39,0.00,SCT,,0.04,WeatherDisplay:10.37,2013-01-21 00:05:00,
2013-01-20 19:15:00,27.6,5.8,29.80,SW,224,1.0,6.0,39,0.00,SCT,,0.04,WeatherDisplay:10.37,2013-01-21 00:15:00,
2013-01-20 19:20:00,27.4,5.6,29.80,SW,218,2.0,10.0,39,0.00,SCT,,0.04,WeatherDisplay:10.37,2013-01-21 00:20:00,
2013-01-20 19:30:00,27.4,5.7,29.81,WSW,243,2.0,8.0,39,0.00,SCT,,0.04,WeatherDisplay:10.37,2013-01-21 00:30:00,
2013-01-20 19:35:00,27.5,5.7,29.81,SSE,165,0.0,0.0,39,0.00,SCT,,0.04,WeatherDisplay:10.37,2013-01-21 00:35:00,
2013-01-20 19:40:00,27.3,5.5,29.81,SSE,157,1.0,7.0,39,0.00,SCT,,0.04,WeatherDisplay:10.37,2013-01-21 00:40:00,
2013-01-20 19:45:00,27.6,5.9,29.82,SSE,152,0.0,7.0,39,0.00,SCT,,0.04,WeatherDisplay:10.37,2013-01-21 00:45:00,
2013-01-20 19:50:00,27.0,5.3,29.82,SSE,158,0.0,6.0,39,0.00,SCT,,0.04,WeatherDisplay:10.37,2013-01-21 00:50:00,
2013-01-20 19:55:00,27.0,5.3,29.83,WNW,293,1.0,11.0,39,0.00,SCT,,0.04,WeatherDisplay:10.37,2013-01-21 00:55:00,
2013-01-20 20:00:00,27.5,5.7,29.83,NW,310,1.0,10.0,39,0.00,SCT,,0.04,WeatherDisplay:10.37,2013-01-21 01:00:00,
2013-01-20 20:05:00,27.3,6.1,29.83,NW,321,0.0,9.0,40,0.00,SCT,,0.04,WeatherDisplay:10.37,2013-01-21 01:05:00,
2013-01-20 20:10:00,27.1,5.9,29.83,WNW,283,0.0,13.0,40,0.00,SCT,,0.04,WeatherDisplay:10.37,2013-01-21 01:10:00,
2013-01-20 20:20:00,27.2,6.0,29.83,NE,46,3.0,11.0,40,0.00,SCT,,0.04,WeatherDisplay:10.37,2013-01-21 01:20:00,
2013-01-20 20:25:00,27.6,6.4,29.84,NW,304,0.0,9.0,40,0.00,SCT,,0.04,WeatherDisplay:10.37,2013-01-21 01:25:00,
2013-01-20 20:30:00,27.2,6.0,29.84,WNW,285,2.0,13.0,40,0.00,SCT,,0.04,WeatherDisplay:10.37,2013-01-21 01:30:00,
2013-01-20 20:35:00,27.3,6.2,29.84,NW,315,1.0,9.0,40,0.00,SCT,,0.04,WeatherDisplay:10.37,2013-01-21 01:35:00,
2013-01-20 20:40:00,27.2,6.0,29.84,NNW,337,0.0,8.0,40,0.00,SCT,,0.04,WeatherDisplay:10.37,2013-01-21 01:40:00,
2013-01-20 20:45:00,27.3,6.2,29.84,NNW,328,1.0,8.0,40,0.00,SCT,,0.04,WeatherDisplay:10.37,2013-01-21 01:45:00,
2013-01-20 20:50:00,27.2,6.0,29.85,West,271,0.0,6.0,40,0.00,SCT,,0.04,WeatherDisplay:10.37,2013-01-21 01:50:00,
2013-01-20 20:55:00,26.9,5.8,29.85,East,93,2.0,10.0,40,0.00,SCT,,0.04,WeatherDisplay:10.37,2013-01-21 01:55:00,
2013-01-20 21:00:00,26.6,5.5,29.86,North,5,2.0,12.0,40,0.00,SCT,,0.04,WeatherDisplay:10.37,2013-01-21 02:00:00,
2013-01-20 21:05:00,26.4,6.4,29.86,NW,318,7.0,17.0,42,0.00,OVC,,0.04,WeatherDisplay:10.37,2013-01-21 02:05:00,
2013-01-20 21:10:00,26.3,6.3,29.86,NW,325,1.0,13.0,42,0.00,OVC,,0.04,WeatherDisplay:10.37,2013-01-21 02:10:00,
2013-01-20 21:15:00,26.0,6.1,29.87,NW,325,1.0,17.0,42,0.00,OVC,,0.04,WeatherDisplay:10.37,2013-01-21 02:15:00,
2013-01-20 21:20:00,25.7,5.7,29.88,NNW,344,0.0,6.0,42,0.00,OVC,,0.04,WeatherDisplay:10.37,2013-01-21 02:20:00,
2013-01-20 21:25:00,25.8,5.8,29.88,WNW,303,2.0,10.0,42,0.00,OVC,,0.04,WeatherDisplay:10.37,2013-01-21 02:25:00,
2013-01-20 21:30:00,26.0,6.0,29.88,WNW,295,0.0,7.0,42,0.00,OVC,,0.04,WeatherDisplay:10.37,2013-01-21 02:30:00,
2013-01-20 21:35:00,25.6,5.6,29.88,NW,322,0.0,5.0,42,0.00,OVC,,0.04,WeatherDisplay:10.37,2013-01-21 02:35:00,
2013-01-20 21:40:00,25.2,5.3,29.88,NW,319,1.0,9.0,42,0.00,OVC,,0.04,WeatherDisplay:10.37,2013-01-21 02:40:00,
2013-01-20 21:45:00,25.3,5.4,29.88,NW,316,1.0,3.0,42,0.00,OVC,,0.04,WeatherDisplay:10.37,2013-01-21 02:45:00,
2013-01-20 21:50:00,25.5,5.6,29.88,NW,313,0.0,5.0,42,0.00,OVC,,0.04,WeatherDisplay:10.37,2013-01-21 02:50:00,
2013-01-20 22:30:00,25.1,5.2,29.91,NW,322,1.0,12.0,42,0.00,RA,,0.04,WeatherDisplay:10.37,2013-01-21 03:30:00,
2013-01-20 22:35:00,25.0,5.6,29.91,WNW,294,0.0,0.0,43,0.00,RA,,0.04,WeatherDisplay:10.37,2013-01-21 03:35:00,
2013-01-20 22:40:00,24.6,5.2,29.91,West,277,0.0,10.0,43,0.00,FEW,,0.04,WeatherDisplay:10.37,2013-01-21 03:40:00,
2013-01-20 22:45:00,24.6,5.2,29.92,West,260,0.0,3.0,43,0.00,FEW,,0.04,WeatherDisplay:10.37,2013-01-21 03:45:00,
2013-01-20 22:50:00,24.5,5.1,29.92,West,273,1.0,10.0,43,0.00,FEW,,0.04,WeatherDisplay:10.37,2013-01-21 03:50:00,
2013-01-20 23:00:00,24.4,5.1,29.92,SSW,194,1.0,8.0,43,0.00,FEW,,0.04,WeatherDisplay:10.37,2013-01-21 04:00:00,
2013-01-20 23:05:00,24.1,3.8,29.92,ENE,68,0.0,6.0,41,0.00,OVC,,0.04,WeatherDisplay:10.37,2013-01-21 04:05:00,
2013-01-20 23:10:00,24.1,3.8,29.92,NNW,342,6.0,13.0,41,0.00,OVC,,0.04,WeatherDisplay:10.37,2013-01-21 04:10:00,
2013-01-20 23:15:00,24.3,4.0,29.92,NW,306,0.0,8.0,41,0.00,OVC,,0.04,WeatherDisplay:10.37,2013-01-21 04:15:00,
2013-01-20 23:20:00,23.8,3.5,29.92,WNW,299,0.0,3.0,41,0.00,OVC,,0.04,WeatherDisplay:10.37,2013-01-21 04:20:00,
2013-01-20 23:25:00,24.1,3.8,29.92,WNW,298,0.0,0.0,41,0.00,OVC,,0.04,WeatherDisplay:10.37,2013-01-21 04:25:00,
2013-01-20 23:30:00,24.1,3.8,29.92,WNW,298,0.0,3.0,41,0.00,OVC,,0.04,WeatherDisplay:10.37,2013-01-21 04:30:00,
2013-01-20 23:35:00,23.4,3.1,29.92,NNE,28,2.0,13.0,41,0.00,OVC,,0.04,WeatherDisplay:10.37,2013-01-21 04:35:00,
2013-01-20 23:40:00,23.1,2.9,29.93,ENE,71,2.0,10.0,41,0.00,OVC,,0.04,WeatherDisplay:10.37,2013-01-21 04:40:00,
2013-01-20 23:45:00,22.6,2.4,29.93,North,354,0.0,0.0,41,0.00,OVC,,0.04,WeatherDisplay:10.37,2013-01-21 04:45:00,
2013-01-20 23:50:00,22.5,2.3,29.93,North,355,2.0,7.0,41,0.00,OVC,,0.04,WeatherDisplay:10.37,2013-01-21 04:50:00,
2013-01-20 23:55:00,23.0,2.8,29.93,North,11,0.0,0.0,41,0.00,OVC,,0.04,WeatherDisplay:10.37,2013-01-21 04:55:00,